Location: Lafig�re
(44.4503°N, 4.0357°E)
Time: 14:51:04
(UTC+00:00)

Transit 2A Rocket - Pass Details

Date: 21 January 2021
Orbit: 594 x 908 km, 66.7° (Epoch: 06 March)

Event Time Altitude Azimuth Distance (km) Brightness Sun altitude
Rises 14:47:08 0° 270° (W) 3,263 8.9 14.8°
Reaches altitude 10° 14:51:00 10° 297° (WNW) 2,259 7.7 14.3°
Maximum altitude 14:53:23 13° 325° (NW) 2,004 7.1 14.0°
Drops below altitude 10° 14:55:41 10° 353° (N) 2,166 7.0 13.7°
Sets 14:59:15 0° 21° (NNE) 3,013 7.5 13.3°
